Location: �quirre
(50.4736°N, 2.2351°E)
Time: 04:52:14
(UTC+00:00)

Cosmos 1503 Rocket - Pass Details

Date: 07 August 2020
Orbit: 753 x 790 km, 74.0° (Epoch: 19 September)

Event Time Altitude Azimuth Distance (km) Brightness Sun altitude
Exits shadow 00:56:45 47° 224° (SW) 1,044 4.3 -21.9°
Maximum altitude 00:58:18 74° 296° (WNW) 826 4.1 -21.8°
Drops below altitude 10° 01:03:41 10° 22° (NNE) 2,364 7.7 -21.6°
Sets 01:06:06 0° 24° (NNE) 3,294 8.8 -21.5°
